STARLINK-31969, 59889

Orbit data source: Space-Track

STARLINK-31969, 59889 is a payload satellite owned by SpaceX/Seattle (US) in LEO that was launched on Tue, 28 May 2024 UTC via an FALCON 9 launch vehicle from the Air Force Eastern Test Range (AFETR). Payload-class satellites include a variety of spacecraft equipped with specific instruments for various scientific and technological missions. These include communications satellites like Starlink; space stations such as the ISS; scientific satellites like the Hubble; Earth observation satellites from companies like Planet Labs, Umbra, and HawkEye 360; GPS; miniature CubeSats for education and research; and military/defense satellites.

Loading next visibility...
Identifier
59889, 2024-100E
Orbit
LEO
Country
Flag of USUS
Related business
Manufacturer
SpaceX/Seattle
Mission
Operational Commercial Communications
Bus & Motor
STARLINK V2M, Unknown motor
Mass
730 kg wet, ~700 kg dry
Launch date (UTC)
2024-05-28 (1 year ago)
Launch vehicle
FALCON 9
Launch site
Air Force Eastern Test Range (AFETR)
Object type
Payload
Rocket body
Debris
Shape & HBR
Box + 2 Pan, 17.7 m
Radar Cross Section
33.884 m², Large (>1 m²)

Expand to show TLE details & history
Last TLE update: 19 hours ago

TLE from 19 hours ago
0 STARLINK-31969
1 59889U 24100E   25310.80514023  .00002610  00000-0  10432-3 0  9992
2 59889  43.0022  95.8947 0001762 278.6451  81.4201 15.27592866 82404
Epoch: 2025-11-06T19:19Z
TLE epoch observation values (Epoch: 2025-11-06T19:19:24.115Z)
Latitude
-0.00004°
Longitude
119.78599°
Altitude
482.606 km
Speed
7.626 km/s
True Right ascension
06h 23m 34s
True Declination
0° 00' 00"
Sunlit
Object was in full shadow at epoch
Visualization orbit readout
Latitude
Unknown
Longitude
Unknown
Altitude
Unknown
Speed
Unknown
Apparent Right ascension
Unknown
Apparent Declination
Unknown
Sunlit
N/A
Visualization observer readout
Local Sidereal Time
10:07:24
Azimuth
Unknown
Elevation
Unknown
Doppler factor
Unknown
Orbital elements
Apogee altitude
486.165 km
Perigee altitude
483.746 km
Semi-major axis
6,863.092 km
Eccentricity
0.00018
Inclination
43.0022°
RAAN
95.8947°
Arg. of periapsis
278.6451°
True anomaly
81.44007°
Mean anomaly
81.4201°
Eccentric anomaly
81.43008°
Mean motion
3.81736 °/min
Orbital period
94.31 mins
BSTAR
0.00010432
Loading maneuver chart data...
Computing Atmospheric mass density...
Loading historical data...
Loading historical data...
Loading historical data...
Loading historical data...
Loading historical data...
Loading historical data...
Loading historical data...

Documentation

Showing up to 5 results
|